{"data":{"norad_id":68593,"epoch":"2026-09-20T00:15:44.807328Z","epoch_age_seconds":108648,"freshness":"FRESH","line1":"1 68593U 26072W   26263.01093527  .00001927  00000+0  28178-3 0  9991","line2":"2 68593  51.8982 128.8149 0001779  59.6780 300.4358 14.79931262 25260","mean_motion":14.79931262,"eccentricity":0.0001779,"inclination_deg":51.8982,"raan_deg":128.8149,"arg_perigee_deg":59.678,"mean_anomaly_deg":300.4358,"bstar":0.00028178,"rev_number":2526,"period_min":97.301816440715,"perigee_km":628.29444967892,"apogee_km":630.78778155245,"semimajor_km":7007.6781156157,"source":"CELESTRAK","updated_at":"2026-09-20T09:00:24.353062Z"}}